Time,TemperatureF,DewpointF,PressureIn,WindDirection,WindDirectionDegrees,WindSpeedMPH,WindSpeedGustMPH,Humidity,HourlyPrecipIn,Conditions,Clouds,dailyrainin,SoftwareType,DateUTC
2013-07-31 00:00:00,76.8,74.3,30.10,SSW,194,0.0,0.0,92,0.00,,,0.00,WeatherTracker,2013-07-31 05:00:00,
2013-07-31 00:05:00,76.7,74.5,30.10,SSW,194,0.0,0.0,93,0.00,,,0.00,WeatherTracker,2013-07-31 05:05:00,
2013-07-31 00:10:00,76.7,74.5,30.09,SSW,194,0.0,0.0,93,0.00,,,0.00,WeatherTracker,2013-07-31 05:10:00,
2013-07-31 00:20:00,76.6,74.4,30.09,SSW,194,0.0,0.0,93,0.00,,,0.00,WeatherTracker,2013-07-31 05:20:00,
2013-07-31 00:25:00,76.6,74.4,30.09,SSW,194,0.0,0.0,93,0.00,,,0.00,WeatherTracker,2013-07-31 05:25:00,
2013-07-31 00:30:00,76.5,74.3,30.09,SSW,194,0.0,0.0,93,0.00,,,0.00,WeatherTracker,2013-07-31 05:30:00,
2013-07-31 00:40:00,76.3,74.1,30.09,SSW,194,0.0,0.0,93,0.00,,,0.00,WeatherTracker,2013-07-31 05:40:00,
2013-07-31 00:50:00,76.2,74.0,30.09,SSW,194,0.0,0.0,93,0.00,,,0.00,WeatherTracker,2013-07-31 05:50:00,
2013-07-31 00:55:00,76.2,74.0,30.09,SSW,194,0.0,0.0,93,0.00,,,0.00,WeatherTracker,2013-07-31 05:55:00,
2013-07-31 01:05:00,76.1,74.2,30.08,SSW,194,0.0,0.0,94,0.00,,,0.00,WeatherTracker,2013-07-31 06:05:00,
2013-07-31 01:10:00,76.1,74.2,30.08,SSW,194,0.0,0.0,94,0.00,,,0.00,WeatherTracker,2013-07-31 06:10:00,
2013-07-31 01:20:00,76.1,74.2,30.07,SSW,194,0.0,0.0,94,0.00,,,0.00,WeatherTracker,2013-07-31 06:20:00,
2013-07-31 01:25:00,76.0,74.1,30.08,SSW,194,0.0,0.0,94,0.00,,,0.00,WeatherTracker,2013-07-31 06:25:00,
2013-07-31 01:30:00,76.0,74.1,30.08,SSW,194,0.0,0.0,94,0.00,,,0.00,WeatherTracker,2013-07-31 06:30:00,
2013-07-31 01:35:00,75.9,74.0,30.07,SSW,194,0.0,0.0,94,0.00,,,0.00,WeatherTracker,2013-07-31 06:35:00,
2013-07-31 01:40:00,75.9,74.0,30.07,SSW,194,0.0,0.0,94,0.00,,,0.00,WeatherTracker,2013-07-31 06:40:00,
2013-07-31 01:45:00,75.8,73.9,30.07,SSW,194,0.0,0.0,94,0.00,,,0.00,WeatherTracker,2013-07-31 06:45:00,
2013-07-31 01:55:00,75.7,73.8,30.07,SSW,194,0.0,0.0,94,0.00,,,0.00,WeatherTracker,2013-07-31 06:55:00,
2013-07-31 02:00:00,75.7,74.2,30.07,SSW,194,0.0,0.0,95,0.00,,,0.00,WeatherTracker,2013-07-31 07:00:00,
2013-07-31 02:10:00,75.6,74.1,30.06,SSW,194,0.0,0.0,95,0.00,,,0.00,WeatherTracker,2013-07-31 07:10:00,
2013-07-31 02:20:00,75.4,73.9,30.06,SSW,194,0.0,0.0,95,0.00,,,0.00,WeatherTracker,2013-07-31 07:20:00,
2013-07-31 02:25:00,75.3,73.8,30.06,SSW,194,0.0,0.0,95,0.00,,,0.00,WeatherTracker,2013-07-31 07:25:00,
2013-07-31 02:30:00,75.3,73.8,30.06,SSW,194,0.0,0.0,95,0.00,,,0.00,WeatherTracker,2013-07-31 07:30:00,
2013-07-31 02:40:00,75.3,74.1,30.05,SSW,194,0.0,0.0,96,0.00,,,0.00,WeatherTracker,2013-07-31 07:40:00,
2013-07-31 02:50:00,75.3,74.1,30.05,SSW,194,0.0,0.0,96,0.00,,,0.00,WeatherTracker,2013-07-31 07:50:00,
2013-07-31 02:55:00,75.2,74.0,30.05,SSW,194,0.0,0.0,96,0.00,,,0.00,WeatherTracker,2013-07-31 07:55:00,
2013-07-31 03:00:00,75.2,74.0,30.05,SSW,194,0.0,0.0,96,0.00,,,0.00,WeatherTracker,2013-07-31 08:00:00,
2013-07-31 03:08:00,75.1,73.9,30.05,SSW,194,0.0,0.0,96,0.00,,,0.00,WeatherTracker,2013-07-31 08:08:00,
2013-07-31 03:15:00,75.1,73.9,30.04,SSW,194,0.0,0.0,96,0.00,,,0.00,WeatherTracker,2013-07-31 08:15:00,
2013-07-31 03:20:00,75.1,73.9,30.04,SSW,194,0.0,0.0,96,0.00,,,0.00,WeatherTracker,2013-07-31 08:20:00,
2013-07-31 03:25:00,75.2,74.0,30.04,SSW,194,0.0,0.0,96,0.00,,,0.00,WeatherTracker,2013-07-31 08:25:00,
2013-07-31 03:30:00,75.2,74.0,30.04,SSW,194,0.0,0.0,96,0.00,,,0.00,WeatherTracker,2013-07-31 08:30:00,
2013-07-31 03:40:00,75.2,74.0,30.04,SSW,194,0.0,0.0,96,0.00,,,0.00,WeatherTracker,2013-07-31 08:40:00,
2013-07-31 03:50:00,75.1,73.9,30.04,SSW,194,0.0,0.0,96,0.00,,,0.00,WeatherTracker,2013-07-31 08:50:00,
2013-07-31 03:55:00,75.1,73.9,30.04,SSW,194,0.0,0.0,96,0.00,,,0.00,WeatherTracker,2013-07-31 08:55:00,
2013-07-31 04:05:00,75.0,73.8,30.04,SSW,194,0.0,0.0,96,0.00,,,0.00,WeatherTracker,2013-07-31 09:05:00,
2013-07-31 04:10:00,75.0,73.8,30.04,SSW,194,0.0,0.0,96,0.00,,,0.00,WeatherTracker,2013-07-31 09:10:00,
2013-07-31 05:09:00,74.9,74.0,30.05,SSW,194,0.0,0.0,97,0.00,,,0.00,WeatherTracker,2013-07-31 10:09:00,
2013-07-31 05:15:00,74.9,74.0,30.05,SSW,194,0.0,0.0,97,0.00,,,0.00,WeatherTracker,2013-07-31 10:15:00,
2013-07-31 15:57:00,78.2,75.7,30.02,NNE,26,2.0,0.0,92,0.00,,,0.00,WeatherTracker,2013-07-31 20:57:00,
2013-07-31 16:05:00,77.2,74.4,30.02,NNE,28,0.0,8.0,91,0.00,,,0.00,WeatherTracker,2013-07-31 21:05:00,
2013-07-31 16:10:00,76.9,74.1,30.02,NNE,12,0.0,8.0,91,0.00,,,0.00,WeatherTracker,2013-07-31 21:10:00,
2013-07-31 16:20:00,76.7,74.2,30.02,NNE,20,0.0,3.0,92,0.00,,,0.00,WeatherTracker,2013-07-31 21:20:00,
2013-07-31 16:30:00,76.7,74.2,30.02,NNE,20,0.0,0.0,92,0.00,,,0.00,WeatherTracker,2013-07-31 21:30:00,
2013-07-31 16:35:00,76.7,74.5,30.02,NNE,20,0.0,0.0,93,0.00,,,0.00,WeatherTracker,2013-07-31 21:35:00,
2013-07-31 16:45:00,76.5,74.3,30.03,NNE,17,0.0,0.0,93,0.00,,,0.01,WeatherTracker,2013-07-31 21:45:00,
2013-07-31 16:50:00,76.4,74.2,30.03,West,261,0.0,0.0,93,0.00,,,0.01,WeatherTracker,2013-07-31 21:50:00,
2013-07-31 16:55:00,76.4,74.5,30.03,West,262,0.0,0.0,94,0.00,,,0.01,WeatherTracker,2013-07-31 21:55:00,
2013-07-31 17:05:00,76.3,74.4,30.03,West,262,0.0,0.0,94,0.02,,,0.02,WeatherTracker,2013-07-31 22:05:00,
2013-07-31 17:10:00,76.2,74.3,30.02,West,262,0.0,0.0,94,0.02,,,0.02,WeatherTracker,2013-07-31 22:10:00,
2013-07-31 17:20:00,76.3,74.4,30.02,West,261,0.0,0.0,94,0.03,,,0.03,WeatherTracker,2013-07-31 22:20:00,
2013-07-31 17:30:00,76.3,74.8,30.00,West,261,0.0,0.0,95,0.03,,,0.03,WeatherTracker,2013-07-31 22:30:00,
2013-07-31 17:40:00,76.4,74.9,30.00,WSW,254,0.0,0.0,95,0.02,,,0.03,WeatherTracker,2013-07-31 22:40:00,
2013-07-31 17:45:00,76.4,74.9,30.00,WSW,254,0.0,0.0,95,0.02,,,0.03,WeatherTracker,2013-07-31 22:45:00,
2013-07-31 17:50:00,76.3,74.8,30.00,WSW,254,0.0,0.0,95,0.02,,,0.03,WeatherTracker,2013-07-31 22:50:00,
2013-07-31 18:00:00,76.1,74.6,30.00,WSW,254,0.0,0.0,95,0.02,,,0.03,WeatherTracker,2013-07-31 23:00:00,
2013-07-31 18:05:00,76.0,74.5,30.00,SW,230,0.0,0.0,95,0.01,,,0.03,WeatherTracker,2013-07-31 23:05:00,
2013-07-31 18:15:00,75.8,74.3,29.99,SW,230,0.0,0.0,95,0.00,,,0.03,WeatherTracker,2013-07-31 23:15:00,
2013-07-31 18:25:00,75.6,74.1,30.00,South,171,0.0,0.0,95,0.00,,,0.03,WeatherTracker,2013-07-31 23:25:00,
2013-07-31 18:30:00,75.5,74.0,30.00,South,171,0.0,0.0,95,0.00,,,0.03,WeatherTracker,2013-07-31 23:30:00,
2013-07-31 18:35:00,75.5,74.0,30.00,South,171,0.0,0.0,95,0.01,,,0.04,WeatherTracker,2013-07-31 23:35:00,
2013-07-31 18:45:00,75.3,73.8,30.00,South,171,0.0,0.0,95,0.01,,,0.04,WeatherTracker,2013-07-31 23:45:00,
2013-07-31 18:50:00,75.3,73.8,30.00,South,171,0.0,0.0,95,0.02,,,0.05,WeatherTracker,2013-07-31 23:50:00,
2013-07-31 19:00:00,75.4,73.9,30.00,South,171,0.0,0.0,95,0.02,,,0.05,WeatherTracker,2013-08-01 00:00:00,
2013-07-31 19:10:00,75.3,73.8,30.00,South,171,0.0,0.0,95,0.03,,,0.06,WeatherTracker,2013-08-01 00:10:00,
2013-07-31 19:15:00,75.3,73.8,30.00,South,171,0.0,1.0,95,0.04,,,0.07,WeatherTracker,2013-08-01 00:15:00,
2013-07-31 19:25:00,75.4,73.9,30.01,South,171,0.0,0.0,95,0.04,,,0.07,WeatherTracker,2013-08-01 00:25:00,
2013-07-31 19:30:00,75.4,73.9,30.01,South,171,0.0,0.0,95,0.04,,,0.07,WeatherTracker,2013-08-01 00:30:00,
2013-07-31 19:40:00,75.3,74.1,30.01,South,171,0.0,0.0,96,0.03,,,0.07,WeatherTracker,2013-08-01 00:40:00,
2013-07-31 19:45:00,75.2,74.0,30.00,South,171,0.0,2.0,96,0.03,,,0.07,WeatherTracker,2013-08-01 00:45:00,
2013-07-31 19:55:00,75.0,73.8,30.00,South,180,0.0,5.0,96,0.02,,,0.07,WeatherTracker,2013-08-01 00:55:00,
2013-07-31 20:05:00,74.8,73.6,30.00,South,181,0.0,5.0,96,0.01,,,0.07,WeatherTracker,2013-08-01 01:05:00,
2013-07-31 20:10:00,74.8,73.6,30.00,South,181,0.0,4.0,96,0.01,,,0.07,WeatherTracker,2013-08-01 01:10:00,
2013-07-31 20:20:00,74.6,73.4,30.00,South,184,0.0,6.0,96,0.00,,,0.07,WeatherTracker,2013-08-01 01:20:00,
2013-07-31 20:25:00,74.6,73.4,30.00,South,184,0.0,4.0,96,0.00,,,0.07,WeatherTracker,2013-08-01 01:25:00,
2013-07-31 20:35:00,74.4,73.2,30.00,South,184,0.0,2.0,96,0.00,,,0.07,WeatherTracker,2013-08-01 01:35:00,
2013-07-31 20:45:00,74.4,73.2,30.00,South,184,0.0,2.0,96,0.00,,,0.07,WeatherTracker,2013-08-01 01:45:00,
2013-07-31 20:55:00,74.3,73.1,30.00,South,184,0.0,0.0,96,0.00,,,0.07,WeatherTracker,2013-08-01 01:55:00,
2013-07-31 21:00:00,74.3,73.1,30.01,South,184,0.0,0.0,96,0.00,,,0.07,WeatherTracker,2013-08-01 02:00:00,
2013-07-31 21:10:00,74.2,73.0,30.00,South,177,2.0,0.0,96,0.00,,,0.07,WeatherTracker,2013-08-01 02:10:00,
2013-07-31 21:15:00,74.2,73.0,30.00,SSE,156,0.0,4.0,96,0.00,,,0.07,WeatherTracker,2013-08-01 02:15:00,
2013-07-31 21:20:00,74.2,73.0,30.01,SSE,156,0.0,4.0,96,0.00,,,0.07,WeatherTracker,2013-08-01 02:20:00,
2013-07-31 21:30:00,74.2,73.0,30.01,SSE,156,0.0,0.0,96,0.00,,,0.07,WeatherTracker,2013-08-01 02:30:00,
2013-07-31 21:35:00,74.2,73.0,30.01,SSE,157,0.0,0.0,96,0.00,,,0.07,WeatherTracker,2013-08-01 02:35:00,
2013-07-31 21:40:00,74.2,73.0,30.01,SSE,156,0.0,0.0,96,0.00,,,0.07,WeatherTracker,2013-08-01 02:40:00,
2013-07-31 21:45:00,74.2,73.0,30.00,SSE,156,0.0,0.0,96,0.00,,,0.07,WeatherTracker,2013-08-01 02:45:00,
2013-07-31 21:55:00,74.2,73.0,30.00,SSE,156,0.0,0.0,96,0.00,,,0.07,WeatherTracker,2013-08-01 02:55:00,
2013-07-31 22:05:00,74.1,72.9,30.00,SSE,157,0.0,0.0,96,0.00,,,0.07,WeatherTracker,2013-08-01 03:05:00,
2013-07-31 22:15:00,74.0,72.8,30.00,SSE,156,0.0,0.0,96,0.00,,,0.07,WeatherTracker,2013-08-01 03:15:00,
2013-07-31 22:20:00,74.0,72.8,30.00,SSE,156,0.0,0.0,96,0.00,,,0.07,WeatherTracker,2013-08-01 03:20:00,
2013-07-31 22:25:00,73.9,73.0,30.00,SSE,156,0.0,0.0,97,0.00,,,0.07,WeatherTracker,2013-08-01 03:25:00,
2013-07-31 22:30:00,73.9,73.0,30.00,SSE,156,0.0,0.0,97,0.00,,,0.07,WeatherTracker,2013-08-01 03:30:00,
2013-07-31 22:40:00,73.9,73.0,30.00,SSE,156,0.0,0.0,97,0.00,,,0.07,WeatherTracker,2013-08-01 03:40:00,
2013-07-31 22:45:00,73.8,72.9,30.00,SSE,156,0.0,0.0,97,0.00,,,0.07,WeatherTracker,2013-08-01 03:45:00,
2013-07-31 22:55:00,73.8,72.9,30.00,SSE,156,0.0,0.0,97,0.00,,,0.07,WeatherTracker,2013-08-01 03:55:00,
2013-07-31 23:05:00,73.7,72.8,30.00,SSE,157,0.0,0.0,97,0.00,,,0.07,WeatherTracker,2013-08-01 04:05:00,
2013-07-31 23:10:00,73.7,72.8,30.00,SSE,156,0.0,0.0,97,0.00,,,0.07,WeatherTracker,2013-08-01 04:10:00,
2013-07-31 23:15:00,73.7,72.8,30.00,SSE,156,0.0,0.0,97,0.00,,,0.07,WeatherTracker,2013-08-01 04:15:00,
2013-07-31 23:20:00,73.6,72.7,30.00,SSE,156,0.0,0.0,97,0.00,,,0.07,WeatherTracker,2013-08-01 04:20:00,
2013-07-31 23:25:00,73.7,72.8,30.00,SSE,156,0.0,0.0,97,0.00,,,0.07,WeatherTracker,2013-08-01 04:25:00,
2013-07-31 23:30:00,73.7,72.8,30.00,SSE,156,0.0,0.0,97,0.00,,,0.07,WeatherTracker,2013-08-01 04:30:00,
2013-07-31 23:35:00,73.7,72.8,30.00,SSE,156,0.0,0.0,97,0.00,,,0.07,WeatherTracker,2013-08-01 04:35:00,
2013-07-31 23:45:00,73.7,72.8,30.00,SSE,156,0.0,0.0,97,0.00,,,0.07,WeatherTracker,2013-08-01 04:45:00,
2013-07-31 23:50:00,73.8,72.9,30.00,SSE,156,0.0,0.0,97,0.00,,,0.07,WeatherTracker,2013-08-01 04:50:00,